Find Starlink 30192

NORAD ID: 57405 Int'l Des: 2023-102 Owner: SPXS Country: US Constellation: starlink decayed
LEOCIRCULAR
Vis

Historical Track — Jan 29, 2026

Loading 3D Globe...

About Starlink 30192

Description loading...

Altitude History

Loading altitude history...

Two-Line Element Set

1 57405U 23102B 26026.51836167 .02482419 74659-2 25246-2 0 9996
2 57405 42.9877 69.2335 0009798 80.9079 279.2912 16.11680269140450
Epoch: Jan 26, 2026 • Age: 2335 hours

Current Status

Position data unavailable
Launch Date Jul 20, 2023
Age 2.7 years
Decay Date Jan 29, 2026
Type internet

Technical Details

Classification Payload
Mass 730.00 kg
Dry Mass 700.00 kg
Total Mass 730.00 kg
Length 0.30 m
Diameter 4.10 m
Span 29.00 m
Shape Box + pan
Manufacturer SPXS
Bus Type Starlink V2M
Phase Status Reentered
Owner/State SPXS/US

Most Searched